Regional Weather Roundup
Issued by NWS

Home | Current Version | Previous Version | Text Only | Print | Product List | Glossary On
Versions: 1 2 3 4 5 6 7 8 9 10 11 12 13 14 15 16 17 18 19 20 21 22 23 24 25 26 27 28 29 30 31 32 33 34 35 36 37 38 39 40 41 42 43 44 45 46 47 48 49 50
184
ASHW40 PHFO 061843
RWRHI

WEATHER ROUNDUP FOR HAWAII
NATIONAL WEATHER SERVICE HONOLULU HI
800 AM HST SAT FEB 06 2016

THIS IS AN AUTOMATED REPORT THAT HAS NOT BEEN QUALITY CONTROLLED.

NOTE..."FAIR" INDICATES FEW OR NO CLOUDS BELOW 12,000 FEET WITH NO
SIGNIFICANT WEATHER AND/OR OBSTRUCTIONS TO VISIBILITY.

* - THESE SITES REPORT LIMITED FIELDS

HIZ001>004-061900-
KAUAI-NIIHAU-

CITY           SKY/WX    TMP DP  RH WIND       PRES   REMARKS
LIHUE APT      PTCLDY    67  62  84 W8        30.00R
PORT ALLEN*      N/A     64 N/A N/A N7          N/A
POIPU*           N/A     61 N/A N/A NW3         N/A
PRINCEVILLE*     N/A     64 N/A N/A S3          N/A
KOKOLE POINT*  NOT AVBL
MOLOAA DAIRY*    N/A     70  64  83 W3          N/A
WAIMEA HTS*      N/A     79  55  44 W3          N/A
PUU OPAE*        N/A     66  52  59 N10         N/A
PUU LUA*       NOT AVBL
MAKAHA RIDGE*    N/A     64  57  77 CALM        N/A
$$

HIZ005>011-061900-
OAHU-

CITY           SKY/WX    TMP DP  RH WIND       PRES   REMARKS
HONOLULU       LGT RAIN  73  68  84 VRB5      30.00R
KALAELOA       CLOUDY    72  67  84 CALM      30.01R
KANEOHE MCB    CLOUDY    72  66  81 SW5       29.97R
WHEELER FIELD  DRIZZLE   68  66  94 W2        30.01R
BELLOWS*         N/A    N/A N/A N/A SW5         N/A
KAHUKU*          N/A    N/A N/A N/A VRB1        N/A
WHEELER*         N/A    N/A N/A N/A N1          N/A
WAIANAE HARBOR   N/A    N/A N/A N/A E5          N/A
DILLINGHAM*      N/A     90  82  79 MISG        N/A  HX 111
KAHUKU TRN*      N/A     79  72  78 S2          N/A
KAWAILOA*        N/A     66  61  82 E3          N/A
KII*             N/A     72  68  88 SW2         N/A
MAKUA RANGE*     N/A     72  64  78 E3          N/A
OAHU FOREST NW NOT AVBL
SCHOFIELD BRK*   N/A     66  63  88 NW1         N/A
SCHOFIELD S*   NOT AVBL
WAIANAE VLY*   NOT AVBL
KUAOKALA*        N/A     72  64  78 NE3         N/A
HONOULIUULI*   NOT AVBL
MOKUOLOE IS*   NOT AVBL
PALEHUA*         N/A     64  63  94 N2          N/A
WAIAWA PHB*    NOT AVBL
$$

HIZ012>013-061900-
MOLOKAI-

CITY           SKY/WX    TMP DP  RH WIND       PRES   REMARKS
MOLOKAI AIRPT  MOSUNNY   72  69  90 E3        30.00R
KALAUPAPA      NOT AVBL
MAKAPULAPAI*     N/A     75  70  83 SW3         N/A
MOLOKAI 1*     NOT AVBL
PUU ALII*        N/A     56  56 100 SE1         N/A
$$

HIZ016-061900-
KAHOOLAWE-

CITY           SKY/WX    TMP DP  RH WIND       PRES   REMARKS
KAHOOLAWE*       N/A     70 N/A N/A SE1         N/A
HAKIOAWA*        N/A     72  69  92 MISG      30.41F
HONOKANAIA*      N/A     72  67  85 N3        29.94R
KANELOA*         N/A     70  66  88 N5        30.06R
KEALIALALO*      N/A     72  68  88 S5        29.99
LUA MAKIKA*    NOT AVBL
$$

HIZ014>015-061900-
LANAI-

CITY           SKY/WX    TMP DP  RH WIND       PRES   REMARKS
LANAI CITY     FAIR      66  64  93 E6        30.04F
LANAI 1*       NOT AVBL
$$

HIZ017>028-061900-
MAUI-

CITY           SKY/WX    TMP DP  RH WIND       PRES   REMARKS
KAHULUI        MOSUNNY   68  65  90 S5        29.98F
KAPALUA-W MAUI MOSUNNY   73  63  68 SE8       29.99
HANA AIRPORT   SUNNY     75  32  20 E7        30.01S
HANA*            N/A     68 N/A N/A S3          N/A
HALEAKALA SUMM   N/A     46  -9   9 SW7         N/A
MAALAEA BAY*     N/A     70 N/A N/A W3          N/A
HALEAKALA*     NOT AVBL
KAUPO GAP*       N/A     59  45  58 N7G16       N/A
KULA 1*          N/A     48  45  87 SE3         N/A
$$

HIZ023>026-061900-
BIG ISLAND OF HAWAII COAST AND LOWER SLOPES-

CITY           SKY/WX    TMP DP  RH WIND       PRES   REMARKS
KAILUA KONA    MOSUNNY   73  60  63 NE3       30.01R
HILO           SUNNY     67  55  65 SW7       30.01R
HONOKAA*         N/A     61 N/A N/A VRB1        N/A
KAWAIHAE MWT*    N/A     73 N/A N/A SW1         N/A
KAWAIHAE*        N/A     77 N/A N/A SE1       30.01R
SOUTH POINT*     N/A     66 N/A N/A N9          N/A
UPOLU AIRPORT*   N/A    N/A N/A N/A S3          N/A
KAMUELA*       CLEAR     63  55  77 CALM      30.12F
HAKALAU*         N/A    N/A N/A N/A W3          N/A
KALOKO-HONOKO*   N/A     77  57  50 NE3       30.01R
PALI 2*          N/A     63  52  67 N7          N/A
KEALAKOMO*       N/A     72  66  83 N3          N/A
KAUPULEHU*       N/A     73  64  73 E6          N/A
KAPAPALA*        N/A     58  51  79 VRB3G9      N/A
LOWER KAHUKU*    N/A     54 N/A N/A N3          N/A
PUHE CS*         N/A     72  55  56 E2          N/A
PUHO CS*         N/A     70  41  35 E3          N/A
PTA KEAMUKU*     N/A     59  46  63 CALM        N/A
WAIKOLOA*        N/A     73  63  68 E3          N/A
$$

HIZ027>028-061900-
BIG ISLAND OF HAWAII INTERIOR AND SUMMMITS-

CITY           SKY/WX    TMP DP  RH WIND       PRES   REMARKS
BRADSHAW FIELD CLOUDY    53  18  25 N1        30.30R
MK VISITOR CEN   N/A     50  -9   8 S7          N/A
MAUNA KEA*       N/A     39 -31   4 NW9         N/A
MAUNA LOA*       N/A     46 N/A N/A MISG        N/A
MAUNA LOA 1*   NOT AVBL
PTA KIPUKA*      N/A     43  36  75 E3          N/A
PTA RANGE 17*    N/A    N/A N/A N/A E8          N/A
PTA WEST*        N/A     66  45  45 SE12G18     N/A
NENE CABIN*      N/A    N/A N/A N/A N5          N/A
AHUMOA*          N/A     55  43  64 NE7         N/A
PTA PORTABLE*  NOT AVBL
PUU MALI*        N/A    N/A N/A N/A SW7         N/A
$$

HIC003-061900-
NORTHWEST ISLANDS-

CITY           SKY/WX    TMP DP  RH WIND       PRES   REMARKS
MIDWAY ISLAND  PTCLDY    59  43  55 N16G25    30.32S
MIDWAY NOS*      N/A     61 N/A N/A MISG      30.30S
FRENCH FRIGATE NOT AVBL
$$

PHZ110>124-180-061900-
BUOY REPORTS

STATION/POSITION TIME  TEMP    WIND        PRES    WAVE   SWELL
                       AIR SEA DIR/SP/G            HT/PER HT/DIR
                 (UTC) (F)     (DEG/KT/KT) (MB)    (FT/S) (FT/D)
BUOY 51001       1800   71 76  330/ 17/ 23 1016.0R
BUOY 51101       1750   71 76  330/ 19/ 23 1015.5R   8/10   5/340
BUOY 51100       NOT AVBL
BUOY 51002       1750   77 77  110/ 14/ 17 1014.4S   7/11   7/ 80
BUOY 51003       1750   75 78   60/  8/ 12 1015.6R   5/11   5/320
BUOY 51004       1750   74 77   90/ 16/ 17 1016.0R   8/10   7/100
BARBERS PT BUOY  NOT AVBL
WAIMEA BAY BUOY  1804      78                N/A     4/11   2/320
KAILUA BAY BUOY  1811      77                N/A     5/10   3
LANAI BUOY       NOT AVBL
BARBERS PT 2     1803      78                N/A     4/12   2/300
PAUWELA MAUI     1807      76                N/A     5/12   3/330
HILO             NOT AVBL
KANEOHE BAY BUOY 1806      77                N/A     4/ 9   2/ 20
HANALEI KAUAI    1801      78                N/A     5/10   3/320
KAHULUI HARBOR   1800   72 78  180/  5/  7 1014.8F
HONOLULU HARBOR  1800   72 77  360/  2/  3 1016.3R
KILO NALU        NOT AVBL
HILO HARBOR      1800   67 76  190/  6/  8 1015.6R
MOKUOLOE         1700   72 78  250/  1/  2 1014.9R
NAWILIWILI       1800   65 79  280/  5/  7 1015.9R
WHOTS BUOY       NOT AVBL
BUOY 51028       NOT AVBL
$$

......................KEY........................................
  SKY/WX - SKY CONDITIONS/PRESENT WEATHER
  TMP    - TEMPERATURE IN FAHRENHEIT
  DWPT   - DEWPOINT IN FAHRENHEIT
  RH     - RELATIVE HUMIDITY IN PERCENT
  WIND   - DIRECTION AND SPEED /MPH FOR ISLANDS...KTS FOR BUOYS/
  PRES   - MEAN SEA LEVEL PRESSURE IN INCHES OF HG
  VSB    - VISIBILITY IN MILES
  HX     - HEAT INDEX
  WCI    - WIND CHILL INDEX
  VRB    - VARIABLE WIND DIRECTION
  N/A    - NOT AVAILABLE




USA.gov is the U.S. government's official web portal to all federal, state and local government web resources and services.